Regional Weather Roundup
Issued by NWS

Home | Current Version | Previous Version | Graphics & Text | Print | Product List | Glossary Off
Versions: 1 2 3 4 5 6 7 8 9 10 11 12 13 14 15 16 17 18 19 20 21 22 23 24 25 26 27 28 29 30 31 32 33 34 35 36 37 38 39 40 41 42 43 44 45 46 47 48 49 50

000
ASUS43 KTOP 301208
RWRKS

WEATHER ROUNDUP FOR KANSAS
NATIONAL WEATHER SERVICE GOODLAND KS
700 AM CDT SAT APR 30 2016

NOTE:  "FAIR" INDICATES FEW OR NO CLOUDS BELOW 12,000 FEET WITH NO
SIGNIFICANT WEATHER AND/OR OBSTRUCTIONS TO VISIBILITY.

KSZ001>006-013>018-027>032-041>047-301300-
NORTHWEST KANSAS

CITY           SKY/WX    TMP DP  RH WIND       PRES   REMARKS
GOODLAND       FOG       32  32 100 N15       29.78S VSB 3/4 WCI  22
6HR MIN TEMP:  32; 6HR MAX TEMP:  32; 6HR PCP: TRACE;

HAYS           CLOUDY    43  36  75 NW14      29.71S
HILL CITY      CLOUDY    41  40  96 NW14      29.74S FOG
6HR MIN TEMP:  41; 6HR MAX TEMP:  43; 6HR PCP:  0.05;

RUSSELL        CLOUDY    45  45 100 NW9       29.69S FOG
6HR MIN TEMP:  45; 6HR MAX TEMP:  45;

$$

KSZ061>065-074>080-084>089-301300-
SOUTHWEST KANSAS

CITY           SKY/WX    TMP DP  RH WIND       PRES   REMARKS
DODGE CITY     CLOUDY    36  34  92 NW12      29.77R WCI  28
6HR MIN TEMP:  36; 6HR MAX TEMP:  39;

ELKHART          N/A     37  31  79 NW12        N/A  WCI  29
GARDEN CITY    CLOUDY    36  34  92 NW17      29.77S WCI  26
6HR MIN TEMP:  35; 6HR MAX TEMP:  38;

GREAT BEND     CLOUDY    45  37  76 W12       29.72R
LIBERAL        PTCLDY    37  32  81 NW9       29.80R
PRATT          CLOUDY    40  39  94 W14       29.75R WCI  33
6HR MIN TEMP:  40; 6HR MAX TEMP:  44;

$$

KSZ066>073-081>083-090>101-301300-
SOUTHEAST KANSAS

CITY           SKY/WX    TMP DP  RH WIND       PRES   REMARKS
CHANUTE        CLOUDY    61  58  90 W8        29.65R
6HR MIN TEMP:  61; 6HR MAX TEMP:  62;

COFFEYVILLE    CLOUDY    61  58  90 W10       29.67R
6HR MIN TEMP:  61; 6HR MAX TEMP:  63;

HUTCHINSON     CLOUDY    48  46  93 W8        29.71R FOG
6HR MIN TEMP:  48; 6HR MAX TEMP:  52; 6HR PCP: TRACE;

MEDICINE LODGE   N/A     44  42  93 NW12G18   29.76R
NEWTON         CLOUDY    48  45  87 W10       29.69S
PARSONS        CLOUDY    61  59  93 SW9       29.67R
6HR MIN TEMP:  61; 6HR MAX TEMP:  63;

WICHITA INTL   CLOUDY    50  47  89 W13       29.71R
6HR MIN TEMP:  50; 6HR MAX TEMP:  55; 6HR PCP:  0.03;

WICHITA JABRA  CLOUDY    50  50 100 W15       29.70R
6HR MIN TEMP:  50; 6HR MAX TEMP:  54; 6HR PCP: TRACE;

WICHITA MCCONL CLOUDY    50  48  93 W9        29.70R
WINFIELD       CLOUDY    50  49  96 W10       29.73R
6HR MIN TEMP:  50; 6HR MAX TEMP:  58;

$$

KSZ007>012-019>026-033>040-048>060-102>105-301300-
NORTHEAST KANSAS

CITY           SKY/WX    TMP DP  RH WIND       PRES   REMARKS
CONCORDIA      CLOUDY    46  45  96 NW5       29.67S FOG
6HR MIN TEMP:  46; 6HR MAX TEMP:  47; 6HR PCP:  0.11;

EMPORIA        CLOUDY    52  51  97 W12       29.64R
6HR MIN TEMP:  52; 6HR MAX TEMP:  59; 6HR PCP:  0.05;

LAWRENCE       CLOUDY    57  56  96 E8        29.63S
6HR MIN TEMP:  53; 6HR MAX TEMP:  57; 6HR PCP:  0.17;

MANHATTAN      CLOUDY    52  49  89 W6        29.64R
6HR MIN TEMP:  52; 6HR MAX TEMP:  53; 6HR PCP:  0.14;

MARYSVILLE     DRIZZLE   46  46 100 N6        29.65S
OLATHE IND     CLOUDY    58  58 100 SE10      29.65R
6HR MIN TEMP:  56; 6HR MAX TEMP:  59; 6HR PCP:  0.26;

OLATHE EXE     LGT RAIN  58  57  97 SE10      29.64S
6HR MIN TEMP:  55; 6HR MAX TEMP:  58; 6HR PCP:  0.13;

SALINA         CLOUDY    50  49  96 W8        29.68S FOG
6HR MIN TEMP:  50; 6HR MAX TEMP:  52; 6HR PCP:  0.02;

TOPEKA BILLARD TSTM      56  55  97 CALM      29.62S VSB 1
6HR MIN TEMP:  53; 6HR MAX TEMP:  56; 6HR PCP:  0.30;

TOPEKA FORBES  LGT RAIN  60  58  92 SW7       29.62R FOG
6HR MIN TEMP:  54; 6HR MAX TEMP:  60; 6HR PCP:  0.39;

$$



USA.gov is the U.S. government's official web portal to all federal, state and local government web resources and services.